Zurück zum Katalog

CTC-0

AktivWissenschaftVLEO
NORAD 62401·PAYLOAD·🇺🇸 United States

Gestartet Dec 21, 2024 von Vandenberg Space Force Base

Loading…

Nächste Überflüge (nächste 24 Stunden)

TLE

AktuellSource: Space-Track

Epoche: Sep 13, 2026, 22:47 UTC

1 62401U 24247AA  26256.94981115  .00017703  00000-0  40685-3 0  9995
2 62401  44.9705 135.3389 0004179 129.7030 230.4228 15.42479248 96911

Verfolge CTC-0 in Echtzeit mit AllMySat

Download on the App Store